Terminal Aerodrome Forecast
Issued by NWS

Home | Current Version | Previous Version | Text Only | Print | Product List | Glossary On
Versions: 1 2 3 4 5 6 7 8 9 10 11 12 13 14 15 16 17 18 19 20 21 22 23 24 25 26 27 28 29 30 31
000
FTUS43 KDVN 180541
TAFCID
TAF
KCID 180541Z 1806/1906 07014G21KT P6SM OVC050
     FM181300 07017G23KT 5SM FZRAPL BR VCTS OVC015CB
     FM181530 03013G20KT 1SM -SN OVC008
     FM182000 34015G22KT 3SM -SN BR OVC012
     FM190000 33012G19KT P6SM BKN020=

USA.gov is the U.S. government's official web portal to all federal, state and local government web resources and services.